TimeCET,TemperatureF,Dew PointF,Humidity,Sea Level PressureIn,VisibilityMPH,Wind Direction,Wind SpeedMPH,Gust SpeedMPH,PrecipitationIn,Events,Conditions,WindDirDegrees,DateUTC
12:00 AM,46.4,39.2,76,29.53,6.2,SW,5.8,-,N/A,,Unknown,220,2013-03-06 23:00:00
12:30 AM,46.4,39.2,76,29.53,6.2,West,3.5,-,N/A,,Unknown,280,2013-03-06 23:30:00
1:00 AM,45,39,73,29.55,4,WSW,3.5,,,,Clear,250,2013-03-07 00:00:00
1:00 AM,44.6,39.2,81,29.53,6.2,Variable,3.5,-,N/A,,Unknown,0,2013-03-07 00:00:00
1:30 AM,44.6,39.2,81,29.53,6.2,Variable,2.3,-,N/A,,Unknown,0,2013-03-07 00:30:00
2:00 AM,44.6,41.0,87,29.53,5.6,SE,4.6,-,N/A,,Unknown,140,2013-03-07 01:00:00
2:30 AM,44.6,39.2,81,29.53,4.3,Variable,2.3,-,N/A,Rain,Light Rain,0,2013-03-07 01:30:00
3:00 AM,44.6,41.0,87,29.53,4.3,SE,3.5,-,N/A,,Unknown,130,2013-03-07 02:00:00
3:30 AM,44.6,39.2,81,29.53,5.0,ESE,3.5,-,N/A,,Unknown,120,2013-03-07 02:30:00
4:00 AM,44.6,41.0,87,29.53,4.3,WSW,2.3,-,N/A,,Light Drizzle,250,2013-03-07 03:00:00
4:30 AM,44.6,41.0,87,29.53,3.1,Variable,2.3,-,N/A,Rain,Light Rain,0,2013-03-07 03:30:00
5:00 AM,42.8,41.0,93,29.53,-9999.0,Calm,Calm,-,N/A,Rain,Light Rain,0,2013-03-07 04:00:00
5:30 AM,42.8,41.0,93,29.53,1.8,SSW,2.3,-,N/A,,Mist,200,2013-03-07 04:30:00
6:00 AM,42.8,41.0,93,29.53,-9999.0,SSW,4.6,-,N/A,,Light Drizzle,210,2013-03-07 05:00:00
6:30 AM,42.8,41.0,93,29.53,-9999.0,WSW,2.3,-,N/A,Rain,Light Rain,240,2013-03-07 05:30:00
7:00 AM,42,41,97,29.56,2,SSW,1.2,,,Rain,Light Rain,210,2013-03-07 06:00:00
7:00 AM,42.8,41.0,93,29.53,1.7,Variable,1.2,-,N/A,Rain,Light Rain,0,2013-03-07 06:00:00
7:30 AM,42.8,41.0,93,29.53,-9999.0,SSW,2.3,-,N/A,,Overcast,200,2013-03-07 06:30:00
8:00 AM,42.8,42.8,100,29.53,1.8,South,4.6,-,N/A,,Mist,180,2013-03-07 07:00:00
8:30 AM,42.8,42.8,100,29.56,-9999.0,Variable,2.3,-,N/A,,Mist,0,2013-03-07 07:30:00
9:00 AM,44.6,42.8,93,29.56,-9999.0,Variable,2.3,-,N/A,,Mist,0,2013-03-07 08:00:00
9:30 AM,46.4,42.8,87,29.56,3.1,SSE,3.5,-,N/A,,Mist,150,2013-03-07 08:30:00
10:00 AM,46.4,42.8,87,29.56,4.3,South,5.8,-,N/A,,Unknown,170,2013-03-07 09:00:00
10:30 AM,48.2,44.6,87,29.56,5.0,South,6.9,-,N/A,,Unknown,190,2013-03-07 09:30:00
11:00 AM,50.0,44.6,82,29.56,5.6,South,4.6,-,N/A,,Unknown,190,2013-03-07 10:00:00
11:30 AM,50.0,44.6,82,29.56,5.6,South,4.6,-,N/A,,Unknown,180,2013-03-07 10:30:00
12:00 PM,51.8,44.6,76,29.56,5.6,South,5.8,-,N/A,,Unknown,170,2013-03-07 11:00:00
12:30 PM,53.6,44.6,72,29.56,6.2,SSW,5.8,-,N/A,,Unknown,200,2013-03-07 11:30:00
1:00 PM,56,45,56,29.56,6,South,5.8,,,,Clear,180,2013-03-07 12:00:00
1:00 PM,55.4,44.6,67,29.53,6.2,South,5.8,-,N/A,,Unknown,180,2013-03-07 12:00:00
1:30 PM,57.2,42.8,59,29.53,6.2,SSE,5.8,-,N/A,,Unknown,160,2013-03-07 12:30:00
2:00 PM,57.2,44.6,63,29.53,6.2,South,8.1,-,N/A,,Unknown,180,2013-03-07 13:00:00
2:30 PM,59.0,42.8,55,29.53,6.2,South,5.8,-,N/A,,Unknown,180,2013-03-07 13:30:00
3:00 PM,57.2,42.8,59,29.53,6.2,South,6.9,-,N/A,,Unknown,180,2013-03-07 14:00:00
3:30 PM,59.0,41.0,51,29.53,6.2,South,5.8,-,N/A,,Unknown,180,2013-03-07 14:30:00
4:00 PM,59.0,42.8,55,29.50,6.2,SSW,5.8,-,N/A,,Unknown,210,2013-03-07 15:00:00
4:30 PM,59.0,42.8,55,29.50,6.2,SSW,3.5,-,N/A,,Unknown,200,2013-03-07 15:30:00
5:00 PM,59.0,44.6,59,29.50,6.2,SSW,1.2,-,N/A,,Unknown,200,2013-03-07 16:00:00
5:30 PM,57.2,46.4,67,29.50,6.2,Variable,1.2,-,N/A,Rain,Light Rain,0,2013-03-07 16:30:00
6:00 PM,55.4,42.8,63,29.50,6.2,Variable,1.2,-,N/A,,Unknown,0,2013-03-07 17:00:00
6:30 PM,55.4,44.6,67,29.50,6.2,ESE,3.5,-,N/A,,Unknown,110,2013-03-07 17:30:00
7:00 PM,54,44,61,29.54,7,ESE,2.3,,,,Clear,120,2013-03-07 18:00:00
7:00 PM,53.6,44.6,72,29.53,6.2,ESE,2.3,-,N/A,,Unknown,120,2013-03-07 18:00:00
7:30 PM,53.6,44.6,72,29.53,6.2,Calm,Calm,-,N/A,,Unknown,0,2013-03-07 18:30:00
8:00 PM,53.6,44.6,72,29.53,6.2,Variable,2.3,-,N/A,,Unknown,0,2013-03-07 19:00:00
8:30 PM,51.8,44.6,76,29.53,6.2,Variable,2.3,-,N/A,,Overcast,0,2013-03-07 19:30:00
9:00 PM,51.8,44.6,76,29.53,6.2,Calm,Calm,-,N/A,,Overcast,0,2013-03-07 20:00:00
9:30 PM,50.0,44.6,82,29.53,5.6,ESE,3.5,-,N/A,,Unknown,120,2013-03-07 20:30:00
10:00 PM,50.0,44.6,82,29.53,6.2,Calm,Calm,-,N/A,,Unknown,0,2013-03-07 21:00:00
10:30 PM,50.0,44.6,82,29.53,5.6,WSW,3.5,-,N/A,,Unknown,240,2013-03-07 21:30:00
11:00 PM,50.0,44.6,82,29.53,5.6,West,2.3,-,N/A,,Unknown,260,2013-03-07 22:00:00
11:30 PM,48.2,44.6,87,29.53,5.0,Calm,Calm,-,N/A,,Unknown,0,2013-03-07 22:30:00